Lamar, CO

6:23 PM MST on February 24, 2017 (GMT -0700)
Lamar Municipal

Weather History for KLAA - May, 2014

Change the Weather History Date:

Monday, May 5, 2014

  Actual Average Record
Temperature  
Mean Temperature 69 °F 58 °F  
Max Temperature 89 °F 75 °F 97 °F (1936)
Min Temperature 50 °F 42 °F 26 °F (2013)
Degree Days  
Heating Degree Days 0 7  
Month to date heating degree days 38  
Since 1 July heating degree days 5438  
Cooling Degree Days 4 1  
Month to date cooling degree days 3  
Year to date cooling degree days 8  
Growing Degree Days 19 (Base 50)    
Moisture  
Dew Point 30 °F    
Average Humidity 24    
Maximum Humidity 50    
Minimum Humidity 10    
Precipitation  
Precipitation 0.00 in 0.05 in 1.75 in (1968)
Sea Level Pressure  
Sea Level Pressure 29.64 in    
Wind  
Wind Speed 9 mph (ESE)    
Max Wind Speed 18 mph    
Max Gust Speed 23 mph    
Visibility 9 miles    
Events      
T = Trace of Precipitation, MM = Missing Value Source: NWS Daily Summary

Daily Weather History Graph

Daily Weather History Graph

Search for Another Location

Airport or City:

Trip Planner

Search our weather history database for the weather conditions in past years. The results will help you decide how hot, cold, wet, or windy it might be!

Date:

Astronomy

May. 05, 2014 Rise Set
Actual Time 5:49 AM MDT 7:45 PM MDT
Civil Twilight 5:21 AM MDT 8:14 PM MDT
Nautical Twilight 4:46 AM MDT 8:49 PM MDT
Astronomical Twilight 4:08 AM MDT 9:26 PM MDT
Moon 11:11 AM MDT (5/5) 12:31 AM MDT (5/5)
Length of Visible Light 14h 53m
Length of Day
13h 55m
Waxing Crescent, 37% of the Moon is Illuminated
May 5
Waxing Crescent
May 6
First Quarter
May 14
Full
May 21
Last Quarter
May 28
New

Hourly Weather History & Observations

Time (MDT) Temp. Dew Point Humidity Pressure Visibility Wind Dir Wind Speed Gust Speed Precip Events Conditions
12:53 AM 66.0 °F 19.9 °F 17% 29.61 in 10.0 mi WSW 15.0 mph - N/A   Clear
1:53 AM 66.9 °F 18.0 °F 15% 29.61 in 10.0 mi NW 9.2 mph - N/A   Clear
2:53 AM 57.0 °F 21.9 °F 26% 29.64 in 10.0 mi SW 6.9 mph - N/A   Clear
3:53 AM 53.1 °F 21.9 °F 30% 29.65 in 10.0 mi North 4.6 mph - N/A   Clear
4:53 AM 57.9 °F 21.0 °F 24% 29.65 in 10.0 mi WSW 12.7 mph - N/A   Clear
5:53 AM 50.0 °F 26.1 °F 39% 29.71 in 10.0 mi North 8.1 mph 19.6 mph N/A   Clear
6:53 AM 50.0 °F 25.0 °F 38% 29.74 in 8.0 mi WSW 3.5 mph - N/A   Clear
7:53 AM 63.0 °F 26.1 °F 25% 29.74 in 7.0 mi Calm Calm - N/A   Clear
8:53 AM 68.0 °F 24.1 °F 19% 29.74 in 8.0 mi NE 5.8 mph - N/A   Clear
9:53 AM 70.0 °F 34.0 °F 27% 29.75 in 8.0 mi East 5.8 mph - N/A   Clear
10:53 AM 75.0 °F 34.0 °F 22% 29.74 in 8.0 mi Calm Calm - N/A   Clear
12:53 PM 82.9 °F 35.1 °F 18% 29.66 in 8.0 mi NNE 8.1 mph - N/A   Clear
1:53 PM 84.9 °F 37.0 °F 18% 29.63 in 9.0 mi ESE 10.4 mph - N/A   Clear
2:53 PM 87.1 °F 30.0 °F 13% 29.62 in 8.0 mi SE 9.2 mph 21.9 mph N/A   Clear
3:53 PM 88.0 °F 24.1 °F 10% 29.59 in 8.0 mi Variable 3.5 mph - N/A   Clear
4:53 PM 88.0 °F 28.0 °F 12% 29.55 in 8.0 mi ESE 18.4 mph 23.0 mph N/A   Clear
5:53 PM 86.0 °F 30.9 °F 14% 29.56 in 8.0 mi East 17.3 mph - N/A   Clear
6:53 PM 82.0 °F 36.0 °F 19% 29.57 in 8.0 mi ESE 16.1 mph - N/A   Clear
7:53 PM 77.0 °F 39.0 °F 25% 29.55 in 8.0 mi East 13.8 mph - N/A   Clear
8:53 PM 73.0 °F 41.0 °F 31% 29.55 in 9.0 mi East 13.8 mph - N/A   Clear
10:53 PM 66.0 °F 44.1 °F 45% 29.57 in 9.0 mi SE 9.2 mph - N/A   Clear
11:53 PM 62.1 °F 43.0 °F 50% 29.57 in 9.0 mi Calm Calm - N/A   Clear